Time,TemperatureF,DewpointF,PressureIn,WindDirection,WindDirectionDegrees,WindSpeedMPH,WindSpeedGustMPH,Humidity,HourlyPrecipIn,Conditions,Clouds,dailyrainin,SoftwareType,DateUTC
2013-09-15 00:13:00,58.0,53.0,30.03,North,5,12.0,17.0,82,0.00,,,0.16,,2013-09-15 05:13:00,
2013-09-15 00:22:00,57.0,51.0,30.04,NNW,339,10.0,17.0,81,0.00,,,0.16,,2013-09-15 05:22:00,
2013-09-15 00:42:00,57.0,51.0,30.05,NNW,342,9.0,15.0,80,0.00,,,0.16,,2013-09-15 05:42:00,
2013-09-15 00:52:00,56.0,50.0,30.06,North,11,10.0,16.0,79,0.00,,,0.16,,2013-09-15 05:52:00,
2013-09-15 01:12:00,56.0,50.0,30.06,North,360,8.0,15.0,80,0.00,,,0.16,,2013-09-15 06:12:00,
2013-09-15 01:21:00,55.0,49.0,30.06,NNW,341,6.0,16.0,81,0.00,,,0.16,,2013-09-15 06:21:00,
2013-09-15 01:42:00,55.0,49.0,30.06,NW,319,7.0,14.0,81,0.00,,,0.16,,2013-09-15 06:42:00,
2013-09-15 01:52:00,54.0,49.0,30.07,NNW,337,5.0,10.0,82,0.00,,,0.16,,2013-09-15 06:52:00,
2013-09-15 02:11:00,53.0,48.0,30.08,NW,319,5.0,9.0,82,0.00,,,0.16,,2013-09-15 07:11:00,
2013-09-15 02:22:00,52.0,47.0,30.08,NNW,331,4.0,10.0,84,0.00,,,0.16,,2013-09-15 07:22:00,
2013-09-15 02:42:00,51.0,47.0,30.08,North,5,4.0,11.0,85,0.00,,,0.16,,2013-09-15 07:42:00,
2013-09-15 02:52:00,50.0,46.0,30.09,NNW,348,7.0,13.0,86,0.00,,,0.16,,2013-09-15 07:52:00,
2013-09-15 03:11:00,50.0,46.0,30.09,NNE,30,5.0,11.0,87,0.00,,,0.16,,2013-09-15 08:11:00,
2013-09-15 03:22:00,49.0,45.0,30.10,NNW,345,5.0,10.0,87,0.00,,,0.16,,2013-09-15 08:22:00,
2013-09-15 03:43:00,49.0,46.0,30.11,North,11,4.0,10.0,88,0.00,,,0.16,,2013-09-15 08:43:00,
2013-09-15 03:52:00,49.0,46.0,30.11,NNW,335,4.0,10.0,88,0.00,,,0.16,,2013-09-15 08:52:00,
2013-09-15 04:12:00,48.0,45.0,30.12,NW,318,4.0,9.0,89,0.00,,,0.16,,2013-09-15 09:12:00,
2013-09-15 04:22:00,48.0,45.0,30.12,North,356,3.0,9.0,89,0.00,,,0.16,,2013-09-15 09:22:00,
2013-09-15 04:43:00,48.0,45.0,30.14,North,1,3.0,9.0,90,0.00,,,0.16,,2013-09-15 09:43:00,
2013-09-15 04:53:00,48.0,45.0,30.14,NW,321,3.0,10.0,90,0.00,,,0.16,,2013-09-15 09:53:00,
2013-09-15 05:13:00,47.0,44.0,30.15,NNW,328,6.0,11.0,90,0.00,,,0.16,,2013-09-15 10:13:00,
2013-09-15 05:23:00,47.0,44.0,30.16,NNW,337,4.0,8.0,90,0.00,,,0.16,,2013-09-15 10:23:00,
2013-09-15 05:43:00,47.0,45.0,30.16,NNW,331,4.0,9.0,91,0.00,,,0.16,,2013-09-15 10:43:00,
2013-09-15 05:52:00,47.0,45.0,30.17,NNE,16,6.0,10.0,91,0.00,,,0.16,,2013-09-15 10:52:00,
2013-09-15 06:12:00,47.0,44.0,30.18,NNE,13,7.0,13.0,90,0.00,,,0.16,,2013-09-15 11:12:00,
2013-09-15 06:22:00,47.0,44.0,30.19,North,6,9.0,12.0,89,0.00,,,0.16,,2013-09-15 11:22:00,
2013-09-15 06:42:00,47.0,44.0,30.20,NNW,342,8.0,13.0,89,0.00,,,0.16,,2013-09-15 11:42:00,
2013-09-15 06:52:00,46.0,43.0,30.21,NNE,23,8.0,12.0,90,0.00,,,0.16,,2013-09-15 11:52:00,
2013-09-15 07:12:00,46.0,43.0,30.21,NNE,20,7.0,11.0,90,0.00,,,0.16,,2013-09-15 12:12:00,
2013-09-15 07:21:00,45.0,42.0,30.22,North,4,7.0,12.0,90,0.00,,,0.16,,2013-09-15 12:21:00,
2013-09-15 07:52:00,45.0,42.0,30.24,NNE,15,7.0,12.0,90,0.00,,,0.16,,2013-09-15 12:52:00,
2013-09-15 08:11:00,45.0,42.0,30.24,North,351,6.0,11.0,90,0.00,,,0.16,,2013-09-15 13:11:00,
2013-09-15 08:21:00,44.0,41.0,30.26,NNW,341,3.0,9.0,90,0.00,,,0.16,,2013-09-15 13:21:00,
2013-09-15 08:52:00,45.0,42.0,30.27,North,11,6.0,9.0,89,0.00,,,0.16,,2013-09-15 13:52:00,
2013-09-15 09:12:00,46.0,43.0,30.28,North,6,7.0,10.0,88,0.00,,,0.16,,2013-09-15 14:12:00,
2013-09-15 09:22:00,47.0,43.0,30.29,North,5,7.0,11.0,87,0.00,,,0.16,,2013-09-15 14:22:00,
2013-09-15 14:22:00,60.0,46.0,30.35,NNE,26,4.0,8.0,59,0.00,,,0.16,,2013-09-15 19:22:00,
2013-09-15 14:52:00,61.0,44.0,30.34,North,11,5.0,9.0,54,0.00,,,0.16,,2013-09-15 19:52:00,
2013-09-15 15:11:00,61.0,44.0,30.34,North,360,4.0,10.0,53,0.00,,,0.16,,2013-09-15 20:11:00,
2013-09-15 15:22:00,62.0,45.0,30.34,NNE,15,4.0,9.0,54,0.00,,,0.16,,2013-09-15 20:22:00,
2013-09-15 15:42:00,62.0,43.0,30.34,NNW,345,7.0,13.0,50,0.00,,,0.16,,2013-09-15 20:42:00,
2013-09-15 15:53:00,62.0,44.0,30.34,North,349,4.0,11.0,51,0.00,,,0.16,,2013-09-15 20:53:00,
2013-09-15 16:11:00,63.0,42.0,30.34,ENE,58,6.0,10.0,47,0.00,,,0.16,,2013-09-15 21:11:00,
2013-09-15 16:21:00,63.0,42.0,30.34,NW,321,6.0,8.0,47,0.00,,,0.16,,2013-09-15 21:21:00,
2013-09-15 16:44:00,63.0,44.0,30.34,NNW,337,4.0,16.0,49,0.00,,,0.11,,2013-09-15 21:44:00,
2013-09-15 16:54:00,63.0,41.0,30.34,East,81,4.0,9.0,45,0.00,,,0.11,,2013-09-15 21:54:00,
2013-09-15 17:14:00,64.0,43.0,30.34,North,4,3.0,8.0,47,0.00,,,0.11,,2013-09-15 22:14:00,
2013-09-15 17:23:00,64.0,42.0,30.34,North,11,8.0,12.0,45,0.00,,,0.11,,2013-09-15 22:23:00,
2013-09-15 17:44:00,64.0,42.0,30.34,NE,51,4.0,10.0,45,0.00,,,0.01,,2013-09-15 22:44:00,
2013-09-15 17:53:00,64.0,42.0,30.34,North,6,4.0,7.0,45,0.00,,,0.01,,2013-09-15 22:53:00,
2013-09-15 18:12:00,64.0,43.0,30.34,NNE,16,3.0,10.0,46,0.00,,,0.01,,2013-09-15 23:12:00,
2013-09-15 18:22:00,64.0,42.0,30.34,NNW,348,4.0,8.0,44,0.00,,,0.01,,2013-09-15 23:22:00,
2013-09-15 18:42:00,64.0,42.0,30.34,North,11,4.0,7.0,45,0.00,,,0.01,,2013-09-15 23:42:00,
2013-09-15 18:52:00,64.0,42.0,30.34,NNW,334,2.0,5.0,44,0.00,,,0.01,,2013-09-15 23:52:00,
2013-09-15 19:11:00,64.0,41.0,30.34,NE,39,1.0,4.0,43,0.00,,,0.01,,2013-09-16 00:11:00,
2013-09-15 19:22:00,63.0,41.0,30.34,NNE,16,0.0,4.0,45,0.00,,,0.01,,2013-09-16 00:22:00,
2013-09-15 19:42:00,63.0,42.0,30.34,North,1,1.0,3.0,46,0.00,,,0.01,,2013-09-16 00:42:00,
2013-09-15 19:52:00,60.0,42.0,30.34,NNE,15,1.0,2.0,51,0.00,,,0.01,,2013-09-16 00:52:00,
2013-09-15 20:12:00,59.0,43.0,30.34,North,354,1.0,3.0,55,0.00,,,0.01,,2013-09-16 01:12:00,
2013-09-15 20:21:00,57.0,43.0,30.34,NNE,29,0.0,1.0,59,0.00,,,0.01,,2013-09-16 01:21:00,
2013-09-15 20:42:00,56.0,43.0,30.35,North,5,0.0,1.0,62,0.00,,,0.01,,2013-09-16 01:42:00,
2013-09-15 20:52:00,54.0,43.0,30.35,North,5,0.0,1.0,67,0.00,,,0.01,,2013-09-16 01:52:00,
2013-09-15 21:12:00,52.0,43.0,30.35,North,5,0.0,0.0,71,0.00,,,0.01,,2013-09-16 02:12:00,
2013-09-15 21:22:00,50.0,43.0,30.35,North,6,0.0,0.0,76,0.00,,,0.01,,2013-09-16 02:22:00,
2013-09-15 21:42:00,48.0,42.0,30.35,North,5,0.0,0.0,79,0.00,,,0.01,,2013-09-16 02:42:00,
2013-09-15 21:52:00,47.0,42.0,30.36,North,5,0.0,0.0,82,0.00,,,0.01,,2013-09-16 02:52:00,
2013-09-15 22:11:00,46.0,41.0,30.36,North,4,0.0,0.0,81,0.00,,,0.01,,2013-09-16 03:11:00,
2013-09-15 22:22:00,45.0,40.0,30.36,SSE,168,0.0,1.0,83,0.00,,,0.01,,2013-09-16 03:22:00,
2013-09-15 22:45:00,45.0,41.0,30.36,South,169,0.0,0.0,85,0.00,,,0.00,,2013-09-16 03:45:00,
2013-09-15 22:54:00,44.0,41.0,30.37,SSE,168,0.0,0.0,88,0.00,,,0.00,,2013-09-16 03:54:00,
2013-09-15 23:13:00,43.0,39.0,30.37,SSE,168,0.0,0.0,87,0.00,,,0.00,,2013-09-16 04:13:00,
2013-09-15 23:24:00,42.0,38.0,30.37,South,169,0.0,0.0,87,0.00,,,0.00,,2013-09-16 04:24:00,
2013-09-15 23:43:00,42.0,39.0,30.37,South,169,0.0,0.0,88,0.00,,,0.00,,2013-09-16 04:43:00,
2013-09-15 23:54:00,41.0,38.0,30.37,South,169,0.0,0.0,89,0.00,,,0.00,,2013-09-16 04:54:00,